Theta_e
301 301 301 301 301 300 300 300 302 303 305 306 307 310 318 321 321 321 320 320 320 320
298 298 297 297 298 297 297 298 298 299 299 301 302 303 305 308 312 318 319 319 319 319
294 295 294 294 293 294 294 295 295 295 296 297 297 298 298 298 301 302 304 308 312 318
291 291 291 290 290 290 291 291 291 291 292 292 292 293 294 295 295 294 296 297 298 299
287 287 286 286 286 287 287 288 288 289 289 290 290 291 290 289 290 290 290 292 293 293
283 283 283 284 284 285 285 285 286 286 286 286 287 286 286 286 287 287 288 289 289 290
282 282 282 282 283 283 283 283 283 284 285 285 286 285 285 284 285 285 287 288 289 290
281 281 281 281 282 282 282 282 283 283 283 284 284 284 284 283 283 283 284 286 287 288
280 280 279 280 279 280 280 280 281 281 281 281 282 284 284 283 281 282 283 283 285 285
278 278 278 278 278 277 277 278 278 278 278 278 279 282 283 282 280 280 281 281 281 282
276 276 277 277 276 276 276 276 276 276 277 277 278 281 281 281 279 279 279 280 280 280
275 275 275 275 274 274 275 275 275 276 275 275 276 279 280 280 277 277 277 278 279 279
274 274 273 273 273 274 274 274 275 275 275 276 275 278 279 278 276 275 275 276 277 278
272 272 272 272 273 273 273 273 273 273 274 274 274 274 277 278 275 274 274 274 274 275
Wind_Speed
10 7 7 9 7 6 5 6 8 7 7 8 8 9 9 3 4 5 5 7 7 6
10 11 9 10 9 7 8 7 8 9 9 8 9 9 8 5 7 6 5 6 7 7
9 10 9 9 9 9 8 9 9 9 9 10 10 10 8 6 7 9 7 7 9 8
9 9 9 9 9 8 8 9 9 8 8 9 10 10 9 10 12 12 11 12 12 11
9 8 9 8 8 8 8 8 8 7 7 8 8 8 12 12 11 11 11 11 11 11
8 7 8 8 7 7 7 8 8 8 9 9 8 11 11 10 10 10 9 10 10 11
7 7 7 6 7 6 6 7 7 7 8 8 7 10 10 10 9 10 10 9 9 10
5 6 5 5 6 4 6 7 6 6 7 7 7 8 10 10 9 9 9 9 9 8
6 5 5 5 5 5 5 5 5 7 7 8 6 15 17 13 9 10 10 9 9 9
5 5 4 5 6 7 7 5 6 7 8 8 7 17 17 19 9 9 9 9 10 9
6 6 6 6 7 7 5 6 6 7 8 6 7 16 17 18 8 7 8 9 10 10
5 7 6 6 8 5 5 5 5 5 5 5 6 16 17 15 8 9 9 9 10 10
6 7 7 6 8 6 6 7 6 8 7 8 8 16 19 17 9 11 10 10 11 16
6 7 7 7 5 6 6 6 5 7 7 8 8 10 17 18 9 8 10 10 10 9
Wind_Direction
60 67 68 65 70 67 64 53 36 34 26 21 24 13 354 313 271 259 254 246 253 259
66 69 72 66 65 62 49 45 32 30 25 22 19 17 7 9 345 325 282 264 252 252
68 68 68 65 58 56 48 42 37 30 23 22 18 17 11 6 346 1 357 349 338 314
56 56 59 59 50 44 44 38 38 34 31 26 20 13 11 8 15 4 2 359 5 339
55 53 54 52 47 40 41 31 30 25 32 38 30 18 31 19 7 5 1 355 351 346
53 56 53 49 44 44 45 41 34 29 30 23 20 49 31 19 4 357 354 353 345 337
56 54 59 53 48 40 55 53 44 36 32 28 26 40 24 19 5 353 346 342 340 338
67 55 48 44 50 48 56 53 40 39 38 27 38 34 12 7 7 347 342 333 346 335
86 77 57 46 28 21 37 48 43 44 34 25 27 19 10 6 359 348 341 338 338 340
90 81 70 61 38 24 7 22 36 40 31 22 5 7 2 4 1 350 338 338 335 339
73 72 44 60 59 30 358 358 20 32 29 15 4 0 1 356 351 340 336 329 337 329
78 68 64 40 56 28 352 2 11 28 24 14 2 359 357 356 349 339 339 337 330 332
70 58 55 28 37 24 7 356 353 8 18 7 5 358 357 355 344 340 340 335 334 329
57 65 50 30 20 32 8 337 344 11 6 9 3 358 349 345 346 337 329 325 323 325